Time,TemperatureF,DewpointF,PressureIn,WindDirection,WindDirectionDegrees,WindSpeedMPH,WindSpeedGustMPH,Humidity,HourlyPrecipIn,Conditions,Clouds,dailyrainin,SoftwareType,DateUTC
2013-04-03 00:00:00,38.7,18.6,29.62,NNE,31,5.4,7.4,44,0.00,,---,0.00,VWS V14.00,2013-04-03 05:00:00,
2013-04-03 00:05:00,38.7,18.6,29.62,NNE,31,4.7,6.6,44,0.00,,---,0.00,VWS V14.00,2013-04-03 05:05:00,
2013-04-03 00:10:00,38.7,18.6,29.62,NNE,33,4.7,6.6,44,0.00,,---,0.00,VWS V14.00,2013-04-03 05:10:00,
2013-04-03 00:15:00,38.5,18.5,29.62,NE,36,5.4,7.4,44,0.00,,---,0.00,VWS V14.00,2013-04-03 05:15:00,
2013-04-03 00:20:00,38.3,18.3,29.62,NE,37,6.7,9.1,44,0.00,,---,0.00,VWS V14.00,2013-04-03 05:20:00,
2013-04-03 00:25:00,38.3,18.3,29.62,NE,38,6.0,8.2,44,0.00,,---,0.00,VWS V14.00,2013-04-03 05:25:00,
2013-04-03 00:30:00,38.1,18.1,29.62,NE,38,7.4,10.7,44,0.00,,---,0.00,VWS V14.00,2013-04-03 05:30:00,
2013-04-03 00:35:00,38.1,18.1,29.62,NE,36,8.1,10.7,44,0.00,,---,0.00,VWS V14.00,2013-04-03 05:35:00,
2013-04-03 00:40:00,38.1,18.1,29.62,NE,39,6.7,9.1,44,0.00,,---,0.00,VWS V14.00,2013-04-03 05:40:00,
2013-04-03 00:45:00,38.1,18.1,29.62,NE,41,5.4,8.2,44,0.00,,---,0.00,VWS V14.00,2013-04-03 05:45:00,
2013-04-03 00:50:00,38.1,18.1,29.65,NE,52,0.0,1.0,44,0.00,,---,0.00,VWS V14.00,2013-04-03 05:50:00,
2013-04-03 00:55:00,38.1,18.1,29.65,NE,42,5.4,7.4,44,0.00,,---,0.00,VWS V14.00,2013-04-03 05:55:00,
2013-04-03 01:00:00,38.1,18.1,29.65,NE,42,4.0,5.8,44,0.00,,---,0.00,VWS V14.00,2013-04-03 06:00:00,
2013-04-03 01:05:00,38.1,18.1,29.62,NE,43,6.0,8.2,44,0.00,,---,0.00,VWS V14.00,2013-04-03 06:05:00,
2013-04-03 01:10:00,38.1,18.1,29.62,NE,43,3.4,6.6,44,0.00,,---,0.00,VWS V14.00,2013-04-03 06:10:00,
2013-04-03 01:15:00,37.9,18.0,29.62,NE,51,0.0,1.0,44,0.00,,---,0.00,VWS V14.00,2013-04-03 06:15:00,
2013-04-03 01:20:00,37.9,18.0,29.62,NE,54,0.0,1.0,44,0.00,,---,0.00,VWS V14.00,2013-04-03 06:20:00,
2013-04-03 01:25:00,37.9,18.0,29.62,NE,42,4.7,6.6,44,0.00,,---,0.00,VWS V14.00,2013-04-03 06:25:00,
2013-04-03 01:30:00,37.8,18.3,29.62,NE,43,4.7,9.9,45,0.00,,---,0.00,VWS V14.00,2013-04-03 06:30:00,
2013-04-03 01:35:00,37.6,18.2,29.62,NE,43,5.4,7.4,45,0.00,,---,0.00,VWS V14.00,2013-04-03 06:35:00,
2013-04-03 01:40:00,37.6,18.2,29.62,NE,43,0.0,7.4,45,0.00,,---,0.00,VWS V14.00,2013-04-03 06:40:00,
2013-04-03 01:45:00,37.4,18.0,29.62,NE,44,4.0,5.8,45,0.00,,---,0.00,VWS V14.00,2013-04-03 06:45:00,
2013-04-03 01:50:00,37.4,18.0,29.62,NE,45,4.7,6.6,45,0.00,,---,0.00,VWS V14.00,2013-04-03 06:50:00,
2013-04-03 01:55:00,37.2,18.4,29.62,NE,53,0.0,1.0,46,0.00,,---,0.00,VWS V14.00,2013-04-03 06:55:00,
2013-04-03 02:00:00,37.2,18.4,29.62,NE,54,0.0,1.0,46,0.00,,---,0.00,VWS V14.00,2013-04-03 07:00:00,
2013-04-03 02:05:00,37.2,18.4,29.62,NE,54,0.0,1.0,46,0.00,,---,0.00,VWS V14.00,2013-04-03 07:05:00,
2013-04-03 02:10:00,37.2,18.4,29.62,NE,54,0.0,1.0,46,0.00,,---,0.00,VWS V14.00,2013-04-03 07:10:00,
2013-04-03 02:16:00,37.2,17.9,29.62,NE,54,0.0,1.0,45,0.00,,---,0.00,VWS V14.00,2013-04-03 07:16:00,
2013-04-03 02:21:00,37.0,17.7,29.62,ENE,64,0.0,1.0,45,0.00,,---,0.00,VWS V14.00,2013-04-03 07:21:00,
2013-04-03 02:26:00,37.0,17.7,29.62,ENE,64,0.0,1.0,45,0.00,,---,0.00,VWS V14.00,2013-04-03 07:26:00,
2013-04-03 02:31:00,36.9,18.0,29.62,ENE,66,3.4,5.0,46,0.00,,---,0.00,VWS V14.00,2013-04-03 07:31:00,
2013-04-03 02:36:00,36.9,18.0,29.62,NE,55,4.0,5.8,46,0.00,,---,0.00,VWS V14.00,2013-04-03 07:36:00,
2013-04-03 02:41:00,36.9,18.0,29.62,NE,38,8.1,10.7,46,0.00,,---,0.00,VWS V14.00,2013-04-03 07:41:00,
2013-04-03 02:46:00,36.9,18.0,29.62,NE,41,8.1,10.7,46,0.00,,---,0.00,VWS V14.00,2013-04-03 07:46:00,
2013-04-03 02:51:00,36.7,17.9,29.62,NE,51,0.0,1.0,46,0.00,,---,0.00,VWS V14.00,2013-04-03 07:51:00,
2013-04-03 02:56:00,36.5,17.7,29.62,NE,38,9.4,12.3,46,0.00,,---,0.00,VWS V14.00,2013-04-03 07:56:00,
2013-04-03 03:01:00,36.5,18.2,29.62,NE,44,5.4,7.4,47,0.00,,---,0.00,VWS V14.00,2013-04-03 08:01:00,
2013-04-03 03:06:00,36.5,18.2,29.62,NE,42,8.1,10.7,47,0.00,,---,0.00,VWS V14.00,2013-04-03 08:06:00,
2013-04-03 03:11:00,36.7,17.9,29.62,NE,35,5.4,12.3,46,0.00,,---,0.00,VWS V14.00,2013-04-03 08:11:00,
2013-04-03 03:16:00,36.5,17.7,29.62,NE,42,6.0,8.2,46,0.00,,---,0.00,VWS V14.00,2013-04-03 08:16:00,
2013-04-03 03:21:00,36.5,18.2,29.62,NE,39,10.1,13.1,47,0.00,,---,0.00,VWS V14.00,2013-04-03 08:21:00,
2013-04-03 03:26:00,36.5,18.2,29.62,NE,39,12.4,15.9,47,0.00,,---,0.00,VWS V14.00,2013-04-03 08:26:00,
2013-04-03 03:31:00,36.5,18.2,29.62,NE,36,9.4,14.7,47,0.00,,---,0.00,VWS V14.00,2013-04-03 08:31:00,
2013-04-03 03:36:00,36.5,18.2,29.59,NE,36,8.7,12.3,47,0.00,,---,0.00,VWS V14.00,2013-04-03 08:36:00,
2013-04-03 03:41:00,36.5,18.2,29.59,NE,47,8.1,10.7,47,0.00,,---,0.00,VWS V14.00,2013-04-03 08:41:00,
2013-04-03 03:46:00,36.7,18.4,29.59,NE,45,7.4,9.9,47,0.00,,---,0.00,VWS V14.00,2013-04-03 08:46:00,
2013-04-03 03:51:00,36.7,18.4,29.59,NE,44,13.1,16.7,47,0.00,,---,0.00,VWS V14.00,2013-04-03 08:51:00,
2013-04-03 03:56:00,36.7,18.4,29.59,NE,43,6.7,9.1,47,0.00,,---,0.00,VWS V14.00,2013-04-03 08:56:00,
2013-04-03 04:02:00,36.9,18.0,29.59,NE,36,4.7,6.6,46,0.00,,---,0.00,VWS V14.00,2013-04-03 09:02:00,
2013-04-03 04:07:00,36.9,18.5,29.59,NE,37,5.4,9.9,47,0.00,,---,0.00,VWS V14.00,2013-04-03 09:07:00,
2013-04-03 04:12:00,36.7,17.9,29.59,NE,47,8.1,10.7,46,0.00,,---,0.00,VWS V14.00,2013-04-03 09:12:00,
2013-04-03 04:17:00,36.7,18.4,29.59,NE,37,8.7,11.5,47,0.00,,---,0.00,VWS V14.00,2013-04-03 09:17:00,
2013-04-03 04:21:00,36.7,18.4,29.59,NE,54,4.0,12.3,47,0.00,,---,0.00,VWS V14.00,2013-04-03 09:21:00,
2013-04-03 04:26:00,36.7,18.4,29.59,NE,37,8.7,11.5,47,0.00,,---,0.00,VWS V14.00,2013-04-03 09:26:00,
2013-04-03 04:32:00,36.7,18.4,29.59,NE,37,12.1,15.5,47,0.00,,---,0.00,VWS V14.00,2013-04-03 09:32:00,
2013-04-03 04:36:00,36.7,18.4,29.59,NE,36,9.4,12.3,47,0.00,,---,0.00,VWS V14.00,2013-04-03 09:36:00,
2013-04-03 04:42:00,36.1,18.4,29.59,NE,38,8.7,11.5,48,0.00,,---,0.00,VWS V14.00,2013-04-03 09:42:00,
2013-04-03 04:47:00,36.0,18.2,29.59,NE,37,6.0,12.3,48,0.00,,---,0.00,VWS V14.00,2013-04-03 09:47:00,
2013-04-03 04:52:00,36.0,18.2,29.59,NE,36,4.0,5.8,48,0.00,,---,0.00,VWS V14.00,2013-04-03 09:52:00,
2013-04-03 04:57:00,36.0,18.2,29.59,NE,55,0.0,6.6,48,0.00,,---,0.00,VWS V14.00,2013-04-03 09:57:00,
2013-04-03 05:02:00,36.1,18.4,29.59,ENE,61,0.0,1.0,48,0.00,,---,0.00,VWS V14.00,2013-04-03 10:02:00,
2013-04-03 05:07:00,36.0,18.2,29.62,ENE,71,6.0,8.2,48,0.00,,---,0.00,VWS V14.00,2013-04-03 10:07:00,
2013-04-03 05:12:00,35.8,18.0,29.62,East,86,3.4,5.0,48,0.00,,---,0.00,VWS V14.00,2013-04-03 10:12:00,
2013-04-03 05:17:00,35.8,18.0,29.62,ENE,73,6.0,8.2,48,0.00,,---,0.00,VWS V14.00,2013-04-03 10:17:00,
2013-04-03 05:22:00,35.8,18.0,29.62,ENE,68,4.0,5.8,48,0.00,,---,0.00,VWS V14.00,2013-04-03 10:22:00,
2013-04-03 05:27:00,35.6,17.9,29.62,ENE,75,4.0,5.8,48,0.00,,---,0.00,VWS V14.00,2013-04-03 10:27:00,
2013-04-03 05:32:00,35.4,18.2,29.62,East,82,5.4,7.4,49,0.00,,---,0.00,VWS V14.00,2013-04-03 10:32:00,
2013-04-03 05:37:00,35.4,18.2,29.62,ENE,74,3.4,5.0,49,0.00,,---,0.00,VWS V14.00,2013-04-03 10:37:00,
2013-04-03 05:42:00,35.4,18.6,29.62,ENE,65,4.0,5.8,50,0.00,,---,0.00,VWS V14.00,2013-04-03 10:42:00,
2013-04-03 05:47:00,35.2,18.5,29.62,ENE,70,7.4,9.9,50,0.00,,---,0.00,VWS V14.00,2013-04-03 10:47:00,
2013-04-03 05:52:00,35.2,18.5,29.62,ENE,70,4.0,5.8,50,0.00,,---,0.00,VWS V14.00,2013-04-03 10:52:00,
2013-04-03 05:57:00,35.2,18.5,29.62,ENE,61,0.0,1.0,50,0.00,,---,0.00,VWS V14.00,2013-04-03 10:57:00,
2013-04-03 06:02:00,35.2,18.5,29.65,NE,55,0.0,1.0,50,0.00,,---,0.00,VWS V14.00,2013-04-03 11:02:00,
2013-04-03 06:07:00,35.1,18.3,29.65,ENE,61,3.4,5.0,50,0.00,,---,0.00,VWS V14.00,2013-04-03 11:07:00,
2013-04-03 06:12:00,35.1,18.3,29.65,ENE,58,0.0,1.0,50,0.00,,---,0.00,VWS V14.00,2013-04-03 11:12:00,
2013-04-03 06:17:00,35.1,18.3,29.65,ENE,65,4.7,6.6,50,0.00,,---,0.00,VWS V14.00,2013-04-03 11:17:00,
2013-04-03 06:22:00,35.2,18.5,29.65,ENE,64,3.4,5.0,50,0.00,,---,0.00,VWS V14.00,2013-04-03 11:22:00,
2013-04-03 06:27:00,35.2,18.5,29.65,ENE,60,0.0,5.8,50,0.00,,---,0.00,VWS V14.00,2013-04-03 11:27:00,
2013-04-03 06:32:00,35.2,18.5,29.65,NE,44,4.7,6.6,50,0.00,,---,0.00,VWS V14.00,2013-04-03 11:32:00,
2013-04-03 06:37:00,35.4,18.6,29.65,ENE,67,4.7,6.6,50,0.00,,---,0.00,VWS V14.00,2013-04-03 11:37:00,
2013-04-03 06:42:00,35.4,18.6,29.65,NE,46,4.0,5.8,50,0.00,,---,0.00,VWS V14.00,2013-04-03 11:42:00,
2013-04-03 06:47:00,35.4,18.6,29.68,ENE,59,5.4,7.4,50,0.00,,---,0.00,VWS V14.00,2013-04-03 11:47:00,
2013-04-03 06:52:00,35.6,18.8,29.68,NE,53,6.0,8.2,50,0.00,,---,0.00,VWS V14.00,2013-04-03 11:52:00,
2013-04-03 06:57:00,35.6,18.8,29.68,NE,52,3.4,5.8,50,0.00,,---,0.00,VWS V14.00,2013-04-03 11:57:00,
2013-04-03 07:02:00,35.6,18.8,29.68,NE,45,4.7,6.6,50,0.00,,---,0.00,VWS V14.00,2013-04-03 12:02:00,
2013-04-03 07:07:00,35.8,19.0,29.68,NE,39,8.7,11.5,50,0.00,,---,0.00,VWS V14.00,2013-04-03 12:07:00,
2013-04-03 07:12:00,35.8,19.0,29.68,NE,48,4.0,5.8,50,0.00,,---,0.00,VWS V14.00,2013-04-03 12:12:00,
2013-04-03 07:17:00,36.0,19.1,29.68,ENE,58,0.0,1.0,50,0.00,,---,0.00,VWS V14.00,2013-04-03 12:17:00,
2013-04-03 07:22:00,36.1,19.8,29.68,ENE,64,8.1,10.7,51,0.00,,---,0.00,VWS V14.00,2013-04-03 12:22:00,
2013-04-03 07:27:00,36.3,19.9,29.68,ENE,64,4.0,7.4,51,0.00,,---,0.00,VWS V14.00,2013-04-03 12:27:00,
2013-04-03 07:32:00,36.7,20.3,29.68,ENE,63,4.7,6.6,51,0.00,,---,0.00,VWS V14.00,2013-04-03 12:32:00,
2013-04-03 07:37:00,36.9,20.0,29.68,ENE,67,5.4,7.4,50,0.00,,---,0.00,VWS V14.00,2013-04-03 12:37:00,
2013-04-03 07:42:00,37.4,20.0,29.68,ENE,63,4.7,6.6,49,0.00,,---,0.00,VWS V14.00,2013-04-03 12:42:00,
2013-04-03 07:47:00,37.8,19.9,29.68,NE,43,7.4,9.9,48,0.00,,---,0.00,VWS V14.00,2013-04-03 12:47:00,
2013-04-03 07:52:00,38.1,19.7,29.68,ENE,71,6.0,8.2,47,0.00,,---,0.00,VWS V14.00,2013-04-03 12:52:00,
2013-04-03 07:57:00,38.7,20.2,29.68,ENE,60,4.7,12.3,47,0.00,,---,0.00,VWS V14.00,2013-04-03 12:57:00,
2013-04-03 08:02:00,38.7,19.7,29.68,ENE,60,6.0,8.2,46,0.00,,---,0.00,VWS V14.00,2013-04-03 13:02:00,
2013-04-03 08:07:00,39.4,19.8,29.68,East,79,6.0,13.9,45,0.00,,---,0.00,VWS V14.00,2013-04-03 13:07:00,
2013-04-03 08:12:00,39.4,19.8,29.68,NE,46,5.4,7.4,45,0.00,,---,0.00,VWS V14.00,2013-04-03 13:12:00,
2013-04-03 08:17:00,40.1,20.0,29.68,ENE,58,7.4,9.9,44,0.00,,---,0.00,VWS V14.00,2013-04-03 13:17:00,
2013-04-03 08:22:00,40.5,19.7,29.68,East,83,17.1,21.5,43,0.00,,---,0.00,VWS V14.00,2013-04-03 13:22:00,
2013-04-03 08:27:00,40.6,19.9,29.68,ENE,75,15.8,19.9,43,0.00,,---,0.00,VWS V14.00,2013-04-03 13:27:00,
2013-04-03 08:32:00,40.6,19.4,29.68,East,92,5.4,15.9,42,0.00,,---,0.00,VWS V14.00,2013-04-03 13:32:00,
2013-04-03 08:37:00,41.2,19.9,29.68,NE,55,11.4,20.7,42,0.00,,---,0.00,VWS V14.00,2013-04-03 13:37:00,
2013-04-03 08:42:00,41.2,19.9,29.68,ENE,59,6.0,8.2,42,0.00,,---,0.00,VWS V14.00,2013-04-03 13:42:00,
2013-04-03 08:47:00,42.3,20.3,29.68,ENE,71,8.7,11.5,41,0.00,,---,0.00,VWS V14.00,2013-04-03 13:47:00,
2013-04-03 08:52:00,42.3,20.3,29.68,ENE,77,15.8,19.9,41,0.00,,---,0.00,VWS V14.00,2013-04-03 13:52:00,
2013-04-03 08:57:00,42.8,20.2,29.68,East,89,8.1,10.7,40,0.00,,---,0.00,VWS V14.00,2013-04-03 13:57:00,
2013-04-03 09:02:00,43.7,21.0,29.68,ENE,65,11.4,14.7,40,0.00,,---,0.00,VWS V14.00,2013-04-03 14:02:00,
2013-04-03 09:07:00,43.7,21.0,29.68,ENE,76,15.8,19.9,40,0.00,,---,0.00,VWS V14.00,2013-04-03 14:07:00,
2013-04-03 09:13:00,44.6,20.6,29.68,East,98,15.8,23.1,38,0.00,,---,0.00,VWS V14.00,2013-04-03 14:13:00,
2013-04-03 09:18:00,44.8,21.4,29.68,ENE,69,6.0,8.2,39,0.00,,---,0.00,VWS V14.00,2013-04-03 14:18:00,
2013-04-03 09:23:00,45.3,21.8,29.68,NE,48,7.4,9.9,39,0.00,,---,0.00,VWS V14.00,2013-04-03 14:23:00,
2013-04-03 09:28:00,45.3,20.6,29.68,ENE,68,8.1,10.7,37,0.00,,---,0.00,VWS V14.00,2013-04-03 14:28:00,
2013-04-03 09:33:00,45.3,19.3,29.65,ENE,75,17.1,21.5,35,0.00,,---,0.00,VWS V14.00,2013-04-03 14:33:00,
2013-04-03 09:38:00,45.5,18.8,29.65,ENE,76,23.8,29.6,34,0.00,,---,0.00,VWS V14.00,2013-04-03 14:38:00,
2013-04-03 09:43:00,45.7,18.9,29.65,ENE,62,9.4,12.3,34,0.00,,---,0.00,VWS V14.00,2013-04-03 14:43:00,
2013-04-03 09:48:00,46.0,19.9,29.65,East,89,16.4,20.7,35,0.00,,---,0.00,VWS V14.00,2013-04-03 14:48:00,
2013-04-03 09:53:00,46.4,19.6,29.65,ENE,70,8.7,12.3,34,0.00,,---,0.00,VWS V14.00,2013-04-03 14:53:00,
2013-04-03 09:58:00,46.2,18.7,29.65,ENE,61,15.8,24.8,33,0.00,,---,0.00,VWS V14.00,2013-04-03 14:58:00,
2013-04-03 10:03:00,46.2,19.4,29.65,NE,45,13.1,16.7,34,0.00,,---,0.00,VWS V14.00,2013-04-03 15:03:00,
2013-04-03 10:08:00,46.8,19.9,29.65,ENE,59,12.4,15.9,34,0.00,,---,0.00,VWS V14.00,2013-04-03 15:08:00,
2013-04-03 10:13:00,46.8,19.9,29.65,ENE,67,5.4,7.4,34,0.00,,---,0.00,VWS V14.00,2013-04-03 15:13:00,
2013-04-03 10:18:00,46.8,19.2,29.65,ENE,61,12.4,15.9,33,0.00,,---,0.00,VWS V14.00,2013-04-03 15:18:00,
2013-04-03 10:23:00,46.2,19.4,29.65,NE,45,12.1,15.5,34,0.00,,---,0.00,VWS V14.00,2013-04-03 15:23:00,
2013-04-03 10:28:00,46.2,19.4,29.65,ENE,65,8.7,11.5,34,0.00,,---,0.00,VWS V14.00,2013-04-03 15:28:00,
2013-04-03 10:33:00,46.4,18.9,29.65,East,82,13.1,16.7,33,0.00,,---,0.00,VWS V14.00,2013-04-03 15:33:00,
2013-04-03 10:38:00,46.8,19.2,29.65,ENE,60,4.7,6.6,33,0.00,,---,0.00,VWS V14.00,2013-04-03 15:38:00,
2013-04-03 10:43:00,47.1,19.5,29.65,ENE,68,13.1,16.7,33,0.00,,---,0.00,VWS V14.00,2013-04-03 15:43:00,
2013-04-03 10:48:00,46.9,19.4,29.65,ENE,64,5.4,7.4,33,0.00,,---,0.00,VWS V14.00,2013-04-03 15:48:00,
2013-04-03 10:53:00,47.1,19.5,29.65,ENE,71,16.4,20.7,33,0.00,,---,0.00,VWS V14.00,2013-04-03 15:53:00,
2013-04-03 10:58:00,47.7,20.0,29.65,East,86,17.1,21.5,33,0.00,,---,0.00,VWS V14.00,2013-04-03 15:58:00,
2013-04-03 11:03:00,47.8,20.1,29.65,ENE,71,11.4,15.5,33,0.00,,---,0.00,VWS V14.00,2013-04-03 16:03:00,
2013-04-03 11:08:00,47.8,20.1,29.65,ENE,65,4.7,6.6,33,0.00,,---,0.00,VWS V14.00,2013-04-03 16:08:00,
2013-04-03 11:13:00,47.8,20.1,29.65,ENE,70,19.1,24.0,33,0.00,,---,0.00,VWS V14.00,2013-04-03 16:13:00,
2013-04-03 11:18:00,47.8,20.1,29.65,NE,36,26.8,33.2,33,0.00,,---,0.00,VWS V14.00,2013-04-03 16:18:00,
2013-04-03 11:23:00,48.2,19.7,29.65,NE,38,12.1,15.5,32,0.00,,---,0.00,VWS V14.00,2013-04-03 16:23:00,
2013-04-03 11:28:00,48.6,20.1,29.65,East,82,26.8,33.2,32,0.00,,---,0.00,VWS V14.00,2013-04-03 16:28:00,
2013-04-03 11:33:00,48.6,20.1,29.65,NE,41,15.1,19.1,32,0.00,,---,0.00,VWS V14.00,2013-04-03 16:33:00,
2013-04-03 11:38:00,48.6,20.1,29.65,ENE,70,16.4,20.7,32,0.00,,---,0.00,VWS V14.00,2013-04-03 16:38:00,
2013-04-03 11:43:00,48.6,20.1,29.65,NE,36,15.8,19.9,32,0.00,,---,0.00,VWS V14.00,2013-04-03 16:43:00,
2013-04-03 11:48:00,48.7,20.2,29.65,NNE,20,8.1,10.7,32,0.00,,---,0.00,VWS V14.00,2013-04-03 16:48:00,
2013-04-03 11:53:00,48.9,21.1,29.65,NE,50,12.1,15.5,33,0.00,,---,0.00,VWS V14.00,2013-04-03 16:53:00,
2013-04-03 11:58:00,49.1,20.5,29.65,ENE,71,22.5,28.0,32,0.00,,---,0.00,VWS V14.00,2013-04-03 16:58:00,
2013-04-03 12:03:00,49.5,20.1,29.65,NE,34,25.2,31.2,31,0.00,,---,0.00,VWS V14.00,2013-04-03 17:03:00,
2013-04-03 12:08:00,49.5,20.9,29.65,NE,47,12.4,15.9,32,0.00,,---,0.00,VWS V14.00,2013-04-03 17:08:00,
2013-04-03 12:13:00,49.5,20.9,29.65,NE,52,12.1,15.5,32,0.00,,---,0.00,VWS V14.00,2013-04-03 17:13:00,
2013-04-03 12:18:00,50.4,21.6,29.65,East,79,13.1,16.7,32,0.00,,---,0.00,VWS V14.00,2013-04-03 17:18:00,
2013-04-03 12:23:00,50.5,21.0,29.65,ENE,68,6.0,8.2,31,0.00,,---,0.00,VWS V14.00,2013-04-03 17:23:00,
2013-04-03 12:28:00,50.4,20.9,29.65,ENE,68,9.4,12.3,31,0.00,,---,0.00,VWS V14.00,2013-04-03 17:28:00,
2013-04-03 12:33:00,50.4,20.9,29.65,NE,35,19.8,24.8,31,0.00,,---,0.00,VWS V14.00,2013-04-03 17:33:00,
2013-04-03 12:38:00,50.4,20.9,29.65,NE,36,6.0,8.2,31,0.00,,---,0.00,VWS V14.00,2013-04-03 17:38:00,
2013-04-03 12:43:00,50.9,20.6,29.65,NNE,25,8.1,21.5,30,0.00,,---,0.00,VWS V14.00,2013-04-03 17:43:00,
2013-04-03 12:48:00,50.9,20.6,29.62,NNE,33,17.8,22.3,30,0.00,,---,0.00,VWS V14.00,2013-04-03 17:48:00,
2013-04-03 12:53:00,51.1,21.5,29.62,NE,52,21.8,27.2,31,0.00,,---,0.00,VWS V14.00,2013-04-03 17:53:00,
2013-04-03 12:58:00,51.3,21.7,29.62,NE,52,5.4,7.4,31,0.00,,---,0.00,VWS V14.00,2013-04-03 17:58:00,
2013-04-03 13:03:00,51.4,21.8,29.62,ENE,70,8.1,15.5,31,0.00,,---,0.00,VWS V14.00,2013-04-03 18:03:00,
2013-04-03 13:08:00,52.0,22.3,29.62,ENE,64,13.1,16.7,31,0.00,,---,0.00,VWS V14.00,2013-04-03 18:08:00,
2013-04-03 13:13:00,51.8,21.4,29.62,ENE,70,8.1,10.7,30,0.00,,---,0.00,VWS V14.00,2013-04-03 18:13:00,
2013-04-03 13:18:00,51.8,22.1,29.62,NE,55,6.0,8.2,31,0.00,,---,0.00,VWS V14.00,2013-04-03 18:18:00,
2013-04-03 13:23:00,51.8,21.4,29.62,East,84,15.1,19.1,30,0.00,,---,0.00,VWS V14.00,2013-04-03 18:23:00,
2013-04-03 13:28:00,52.0,21.5,29.62,NE,34,21.8,27.2,30,0.00,,---,0.00,VWS V14.00,2013-04-03 18:28:00,
2013-04-03 13:33:00,52.2,21.7,29.65,ENE,72,6.0,8.2,30,0.00,,---,0.00,VWS V14.00,2013-04-03 18:33:00,
2013-04-03 13:38:00,52.0,21.5,29.65,ENE,60,12.1,15.9,30,0.00,,---,0.00,VWS V14.00,2013-04-03 18:38:00,
2013-04-03 13:43:00,52.0,21.5,29.65,NE,43,15.8,19.9,30,0.00,,---,0.00,VWS V14.00,2013-04-03 18:43:00,
2013-04-03 13:48:00,52.0,21.5,29.62,NE,50,14.4,18.3,30,0.00,,---,0.00,VWS V14.00,2013-04-03 18:48:00,
2013-04-03 13:53:00,52.0,21.5,29.62,NE,51,8.7,11.5,30,0.00,,---,0.00,VWS V14.00,2013-04-03 18:53:00,
2013-04-03 13:58:00,52.0,21.5,29.62,SE,124,15.1,19.1,30,0.00,,---,0.00,VWS V14.00,2013-04-03 18:58:00,
2013-04-03 14:04:00,52.9,22.3,29.62,ENE,78,13.1,16.7,30,0.00,,---,0.00,VWS V14.00,2013-04-03 19:04:00,
2013-04-03 14:09:00,52.9,22.3,29.62,ENE,74,8.1,10.7,30,0.00,,---,0.00,VWS V14.00,2013-04-03 19:09:00,
2013-04-03 14:14:00,52.5,22.0,29.62,ENE,58,8.1,19.9,30,0.00,,---,0.00,VWS V14.00,2013-04-03 19:14:00,
2013-04-03 14:19:00,52.5,22.0,29.62,ENE,69,9.4,12.3,30,0.00,,---,0.00,VWS V14.00,2013-04-03 19:19:00,
2013-04-03 14:24:00,52.7,22.2,29.62,East,81,8.7,15.5,30,0.00,,---,0.00,VWS V14.00,2013-04-03 19:24:00,
2013-04-03 14:29:00,52.9,22.3,29.62,ENE,69,12.4,15.9,30,0.00,,---,0.00,VWS V14.00,2013-04-03 19:29:00,
2013-04-03 14:34:00,52.9,22.3,29.62,ENE,61,11.4,14.7,30,0.00,,---,0.00,VWS V14.00,2013-04-03 19:34:00,
2013-04-03 14:39:00,53.2,22.6,29.62,NE,51,8.7,20.7,30,0.00,,---,0.00,VWS V14.00,2013-04-03 19:39:00,
2013-04-03 14:44:00,53.2,22.6,29.62,ENE,68,18.5,23.1,30,0.00,,---,0.00,VWS V14.00,2013-04-03 19:44:00,
2013-04-03 14:49:00,53.1,22.5,29.62,ENE,59,9.4,24.0,30,0.00,,---,0.00,VWS V14.00,2013-04-03 19:49:00,
2013-04-03 14:54:00,53.4,22.8,29.62,ENE,73,15.1,19.1,30,0.00,,---,0.00,VWS V14.00,2013-04-03 19:54:00,
2013-04-03 14:59:00,53.8,23.1,29.62,ENE,58,13.1,16.7,30,0.00,,---,0.00,VWS V14.00,2013-04-03 19:59:00,
2013-04-03 15:04:00,53.6,22.9,29.62,ENE,71,12.4,15.9,30,0.00,,---,0.00,VWS V14.00,2013-04-03 20:04:00,
2013-04-03 15:09:00,53.6,22.9,29.62,ENE,70,4.7,6.6,30,0.00,,---,0.00,VWS V14.00,2013-04-03 20:09:00,
2013-04-03 15:14:00,53.8,23.1,29.62,East,90,16.4,20.7,30,0.00,,---,0.00,VWS V14.00,2013-04-03 20:14:00,
2013-04-03 15:19:00,53.6,22.9,29.62,ENE,63,12.4,15.9,30,0.00,,---,0.00,VWS V14.00,2013-04-03 20:19:00,
2013-04-03 15:24:00,53.4,22.8,29.62,ENE,70,12.4,15.9,30,0.00,,---,0.00,VWS V14.00,2013-04-03 20:24:00,
2013-04-03 15:29:00,53.4,22.8,29.62,ENE,75,10.7,19.9,30,0.00,,---,0.00,VWS V14.00,2013-04-03 20:29:00,
2013-04-03 15:34:00,53.6,22.9,29.59,NE,52,8.7,15.5,30,0.00,,---,0.00,VWS V14.00,2013-04-03 20:34:00,
2013-04-03 15:39:00,53.4,22.8,29.59,ENE,58,8.1,10.7,30,0.00,,---,0.00,VWS V14.00,2013-04-03 20:39:00,
2013-04-03 15:44:00,53.8,23.1,29.59,ENE,74,15.1,19.1,30,0.00,,---,0.00,VWS V14.00,2013-04-03 20:44:00,
2013-04-03 15:49:00,53.8,23.1,29.59,East,93,12.4,15.9,30,0.00,,---,0.00,VWS V14.00,2013-04-03 20:49:00,
2013-04-03 15:54:00,53.8,23.1,29.59,NE,51,8.1,10.7,30,0.00,,---,0.00,VWS V14.00,2013-04-03 20:54:00,
2013-04-03 15:59:00,54.0,23.2,29.59,East,86,16.4,20.7,30,0.00,,---,0.00,VWS V14.00,2013-04-03 20:59:00,
2013-04-03 16:04:00,54.0,23.2,29.59,ENE,76,10.1,13.1,30,0.00,,---,0.00,VWS V14.00,2013-04-03 21:04:00,
2013-04-03 16:09:00,53.8,23.1,29.59,NE,44,6.0,8.2,30,0.00,,---,0.00,VWS V14.00,2013-04-03 21:09:00,
2013-04-03 16:14:00,53.8,23.1,29.59,ENE,78,13.1,18.3,30,0.00,,---,0.00,VWS V14.00,2013-04-03 21:14:00,
2013-04-03 16:19:00,54.0,22.5,29.59,ESE,103,12.1,18.3,29,0.00,,---,0.00,VWS V14.00,2013-04-03 21:19:00,
2013-04-03 16:24:00,53.8,23.1,29.59,ENE,68,8.1,10.7,30,0.00,,---,0.00,VWS V14.00,2013-04-03 21:24:00,
2013-04-03 16:30:00,53.8,23.1,29.59,NE,56,14.4,18.3,30,0.00,,---,0.00,VWS V14.00,2013-04-03 21:30:00,
2013-04-03 16:35:00,53.8,23.1,29.56,NE,56,13.1,16.7,30,0.00,,---,0.00,VWS V14.00,2013-04-03 21:35:00,
2013-04-03 16:40:00,53.6,22.9,29.56,ENE,65,13.1,16.7,30,0.00,,---,0.00,VWS V14.00,2013-04-03 21:40:00,
2013-04-03 16:45:00,53.6,22.9,29.56,ENE,72,15.1,19.1,30,0.00,,---,0.00,VWS V14.00,2013-04-03 21:45:00,
2013-04-03 16:50:00,53.6,22.9,29.56,ENE,72,11.4,14.7,30,0.00,,---,0.00,VWS V14.00,2013-04-03 21:50:00,
2013-04-03 16:55:00,53.6,22.9,29.56,East,84,19.8,24.8,30,0.00,,---,0.00,VWS V14.00,2013-04-03 21:55:00,
2013-04-03 17:00:00,53.6,22.9,29.56,ENE,64,5.4,19.9,30,0.00,,---,0.00,VWS V14.00,2013-04-03 22:00:00,
2013-04-03 17:05:00,53.6,22.9,29.56,ENE,63,5.4,8.2,30,0.00,,---,0.00,VWS V14.00,2013-04-03 22:05:00,
2013-04-03 17:10:00,53.2,22.6,29.56,ENE,72,12.1,15.5,30,0.00,,---,0.00,VWS V14.00,2013-04-03 22:10:00,
2013-04-03 17:15:00,53.2,22.6,29.56,ESE,118,8.7,14.7,30,0.00,,---,0.00,VWS V14.00,2013-04-03 22:15:00,
2013-04-03 17:20:00,53.2,22.6,29.56,NE,56,5.4,16.7,30,0.00,,---,0.00,VWS V14.00,2013-04-03 22:20:00,
2013-04-03 17:25:00,53.2,22.6,29.56,NE,42,15.1,19.1,30,0.00,,---,0.00,VWS V14.00,2013-04-03 22:25:00,
2013-04-03 17:30:00,53.1,22.5,29.56,East,97,4.0,15.5,30,0.00,,---,0.00,VWS V14.00,2013-04-03 22:30:00,
2013-04-03 17:35:00,53.1,22.5,29.56,ENE,78,6.0,15.5,30,0.00,,---,0.00,VWS V14.00,2013-04-03 22:35:00,
2013-04-03 17:40:00,52.9,22.3,29.56,ENE,72,13.1,16.7,30,0.00,,---,0.00,VWS V14.00,2013-04-03 22:40:00,
2013-04-03 17:45:00,52.9,22.3,29.56,ESE,104,11.4,14.7,30,0.00,,---,0.00,VWS V14.00,2013-04-03 22:45:00,
2013-04-03 17:50:00,52.9,22.3,29.56,East,100,10.7,13.9,30,0.00,,---,0.00,VWS V14.00,2013-04-03 22:50:00,
2013-04-03 17:55:00,52.7,22.2,29.56,East,80,7.4,12.3,30,0.00,,---,0.00,VWS V14.00,2013-04-03 22:55:00,
2013-04-03 18:00:00,52.7,22.2,29.56,ENE,60,9.4,15.9,30,0.00,,---,0.00,VWS V14.00,2013-04-03 23:00:00,
2013-04-03 18:05:00,52.5,22.0,29.56,East,95,6.0,12.3,30,0.00,,---,0.00,VWS V14.00,2013-04-03 23:05:00,
2013-04-03 18:10:00,52.5,22.0,29.56,East,92,11.4,14.7,30,0.00,,---,0.00,VWS V14.00,2013-04-03 23:10:00,
2013-04-03 18:15:00,52.5,22.0,29.56,ENE,68,8.7,11.5,30,0.00,,---,0.00,VWS V14.00,2013-04-03 23:15:00,
2013-04-03 18:20:00,52.0,21.5,29.56,ENE,57,9.4,12.3,30,0.00,,---,0.00,VWS V14.00,2013-04-03 23:20:00,
2013-04-03 18:25:00,52.0,21.5,29.56,ENE,59,8.1,10.7,30,0.00,,---,0.00,VWS V14.00,2013-04-03 23:25:00,
2013-04-03 18:30:00,51.6,22.0,29.56,NE,52,4.0,6.6,31,0.00,,---,0.00,VWS V14.00,2013-04-03 23:30:00,
2013-04-03 18:35:00,51.6,22.0,29.56,ENE,74,6.0,15.9,31,0.00,,---,0.00,VWS V14.00,2013-04-03 23:35:00,
2013-04-03 18:40:00,51.6,22.0,29.56,ENE,61,9.4,12.3,31,0.00,,---,0.00,VWS V14.00,2013-04-03 23:40:00,
2013-04-03 18:45:00,51.6,22.0,29.56,ENE,67,6.0,10.7,31,0.00,,---,0.00,VWS V14.00,2013-04-03 23:45:00,
2013-04-03 18:50:00,51.1,21.5,29.56,ENE,69,8.7,11.5,31,0.00,,---,0.00,VWS V14.00,2013-04-03 23:50:00,
2013-04-03 18:55:00,51.1,21.5,29.56,ENE,65,4.7,6.6,31,0.00,,---,0.00,VWS V14.00,2013-04-03 23:55:00,
2013-04-03 19:00:00,50.4,20.9,29.56,ENE,67,4.0,5.8,31,0.00,,---,0.00,VWS V14.00,2013-04-04 00:00:00,
2013-04-03 19:05:00,50.4,20.9,29.56,ENE,60,4.0,6.6,31,0.00,,---,0.00,VWS V14.00,2013-04-04 00:05:00,
2013-04-03 19:10:00,50.4,20.9,29.56,NE,49,6.0,8.2,31,0.00,,---,0.00,VWS V14.00,2013-04-04 00:10:00,
2013-04-03 19:15:00,49.8,21.2,29.56,NE,56,8.1,10.7,32,0.00,,---,0.00,VWS V14.00,2013-04-04 00:15:00,
2013-04-03 19:20:00,49.8,21.2,29.56,NE,51,0.0,1.0,32,0.00,,---,0.00,VWS V14.00,2013-04-04 00:20:00,
2013-04-03 19:25:00,49.5,20.9,29.56,ENE,73,8.1,10.7,32,0.00,,---,0.00,VWS V14.00,2013-04-04 00:25:00,
2013-04-03 19:30:00,49.5,20.9,29.56,NE,46,5.4,7.4,32,0.00,,---,0.00,VWS V14.00,2013-04-04 00:30:00,
2013-04-03 19:35:00,49.5,20.9,29.56,ENE,65,4.0,5.8,32,0.00,,---,0.00,VWS V14.00,2013-04-04 00:35:00,
2013-04-03 19:40:00,49.3,20.7,29.56,NE,51,0.0,1.0,32,0.00,,---,0.00,VWS V14.00,2013-04-04 00:40:00,
2013-04-03 19:45:00,49.3,20.7,29.56,ENE,57,0.0,5.0,32,0.00,,---,0.00,VWS V14.00,2013-04-04 00:45:00,
2013-04-03 19:50:00,49.1,20.5,29.56,NE,55,3.4,12.3,32,0.00,,---,0.00,VWS V14.00,2013-04-04 00:50:00,
2013-04-03 19:55:00,49.1,20.5,29.56,NE,51,0.0,5.0,32,0.00,,---,0.00,VWS V14.00,2013-04-04 00:55:00,
2013-04-03 20:00:00,49.1,20.5,29.56,NE,52,3.4,5.0,32,0.00,,---,0.00,VWS V14.00,2013-04-04 01:00:00,
2013-04-03 20:05:00,48.7,20.9,29.56,NE,54,0.0,1.0,33,0.00,,---,0.00,VWS V14.00,2013-04-04 01:05:00,
2013-04-03 20:10:00,48.7,20.9,29.56,ENE,60,3.4,5.0,33,0.00,,---,0.00,VWS V14.00,2013-04-04 01:10:00,
2013-04-03 20:15:00,48.7,20.9,29.56,ENE,59,6.0,8.2,33,0.00,,---,0.00,VWS V14.00,2013-04-04 01:15:00,
2013-04-03 20:20:00,48.4,20.6,29.56,ENE,72,4.0,5.8,33,0.00,,---,0.00,VWS V14.00,2013-04-04 01:20:00,
2013-04-03 20:25:00,48.4,20.6,29.56,ENE,69,6.0,8.2,33,0.00,,---,0.00,VWS V14.00,2013-04-04 01:25:00,
2013-04-03 20:30:00,48.4,20.6,29.56,ENE,61,4.0,5.8,33,0.00,,---,0.00,VWS V14.00,2013-04-04 01:30:00,
2013-04-03 20:35:00,48.4,20.6,29.56,ENE,69,8.7,11.5,33,0.00,,---,0.00,VWS V14.00,2013-04-04 01:35:00,
2013-04-03 20:40:00,48.4,20.6,29.56,ENE,74,8.1,10.7,33,0.00,,---,0.00,VWS V14.00,2013-04-04 01:40:00,
2013-04-03 20:45:00,48.6,20.8,29.56,ENE,59,8.7,11.5,33,0.00,,---,0.00,VWS V14.00,2013-04-04 01:45:00,
2013-04-03 20:50:00,48.6,20.8,29.56,East,82,9.4,12.3,33,0.00,,---,0.00,VWS V14.00,2013-04-04 01:50:00,
2013-04-03 20:55:00,48.7,20.9,29.56,East,80,8.7,11.5,33,0.00,,---,0.00,VWS V14.00,2013-04-04 01:55:00,
2013-04-03 21:00:00,48.7,20.9,29.56,ENE,73,7.4,9.9,33,0.00,,---,0.00,VWS V14.00,2013-04-04 02:00:00,
2013-04-03 21:05:00,48.7,20.9,29.56,ENE,77,10.7,13.9,33,0.00,,---,0.00,VWS V14.00,2013-04-04 02:05:00,
2013-04-03 21:10:00,48.6,20.8,29.56,ENE,62,8.7,11.5,33,0.00,,---,0.00,VWS V14.00,2013-04-04 02:10:00,
2013-04-03 21:15:00,48.6,20.8,29.56,NE,41,4.0,5.8,33,0.00,,---,0.00,VWS V14.00,2013-04-04 02:15:00,
2013-04-03 21:20:00,48.6,20.8,29.56,ENE,69,7.4,9.9,33,0.00,,---,0.00,VWS V14.00,2013-04-04 02:20:00,
2013-04-03 21:25:00,48.6,20.8,29.56,ENE,63,9.4,12.3,33,0.00,,---,0.00,VWS V14.00,2013-04-04 02:25:00,
2013-04-03 21:30:00,48.6,20.8,29.56,ENE,69,9.4,12.3,33,0.00,,---,0.00,VWS V14.00,2013-04-04 02:30:00,
2013-04-03 21:35:00,48.6,20.8,29.56,ENE,63,3.4,5.0,33,0.00,,---,0.00,VWS V14.00,2013-04-04 02:35:00,
2013-04-03 21:40:00,48.6,20.8,29.56,ENE,57,5.4,7.4,33,0.00,,---,0.00,VWS V14.00,2013-04-04 02:40:00,
2013-04-03 21:45:00,48.4,20.6,29.56,NE,39,4.7,6.6,33,0.00,,---,0.00,VWS V14.00,2013-04-04 02:45:00,
2013-04-03 21:50:00,48.4,20.6,29.59,ENE,63,8.1,10.7,33,0.00,,---,0.00,VWS V14.00,2013-04-04 02:50:00,
2013-04-03 21:55:00,48.2,20.5,29.59,ENE,60,10.7,13.9,33,0.00,,---,0.00,VWS V14.00,2013-04-04 02:55:00,
2013-04-03 22:00:00,48.4,20.6,29.59,NE,49,4.0,5.8,33,0.00,,---,0.00,VWS V14.00,2013-04-04 03:00:00,
2013-04-03 22:05:00,48.2,20.5,29.59,ENE,70,5.4,7.4,33,0.00,,---,0.00,VWS V14.00,2013-04-04 03:05:00,
2013-04-03 22:10:00,48.2,20.5,29.59,ENE,67,7.4,9.9,33,0.00,,---,0.00,VWS V14.00,2013-04-04 03:10:00,
2013-04-03 22:15:00,47.8,20.1,29.59,ENE,71,6.0,8.2,33,0.00,,---,0.00,VWS V14.00,2013-04-04 03:15:00,
2013-04-03 22:20:00,47.8,20.1,29.59,NE,44,4.0,12.3,33,0.00,,---,0.00,VWS V14.00,2013-04-04 03:20:00,
2013-04-03 22:25:00,47.8,20.1,29.59,ENE,61,5.4,8.2,33,0.00,,---,0.00,VWS V14.00,2013-04-04 03:25:00,
2013-04-03 22:30:00,47.7,20.0,29.59,ENE,61,9.4,12.3,33,0.00,,---,0.00,VWS V14.00,2013-04-04 03:30:00,
2013-04-03 22:35:00,47.7,20.0,29.56,NE,55,8.7,11.5,33,0.00,,---,0.00,VWS V14.00,2013-04-04 03:35:00,
2013-04-03 22:40:00,47.7,20.0,29.56,ENE,78,7.4,9.9,33,0.00,,---,0.00,VWS V14.00,2013-04-04 03:40:00,
2013-04-03 22:45:00,47.5,20.5,29.56,ENE,78,7.4,9.9,34,0.00,,---,0.00,VWS V14.00,2013-04-04 03:45:00,
2013-04-03 22:50:00,47.3,20.4,29.56,ENE,76,9.4,12.3,34,0.00,,---,0.00,VWS V14.00,2013-04-04 03:50:00,
2013-04-03 22:55:00,47.1,20.2,29.56,East,91,8.7,11.5,34,0.00,,---,0.00,VWS V14.00,2013-04-04 03:55:00,
2013-04-03 23:00:00,46.9,20.0,29.56,East,82,12.4,15.9,34,0.00,,---,0.00,VWS V14.00,2013-04-04 04:00:00,
2013-04-03 23:05:00,46.9,20.0,29.56,ENE,63,8.1,10.7,34,0.00,,---,0.00,VWS V14.00,2013-04-04 04:05:00,
2013-04-03 23:10:00,46.9,20.0,29.56,East,94,11.4,14.7,34,0.00,,---,0.00,VWS V14.00,2013-04-04 04:10:00,
2013-04-03 23:15:00,46.9,20.0,29.56,ENE,75,12.4,15.9,34,0.00,,---,0.00,VWS V14.00,2013-04-04 04:15:00,
2013-04-03 23:20:00,46.9,20.0,29.56,ENE,76,8.1,14.7,34,0.00,,---,0.00,VWS V14.00,2013-04-04 04:20:00,
2013-04-03 23:25:00,46.9,19.4,29.56,ENE,64,9.4,12.3,33,0.00,,---,0.00,VWS V14.00,2013-04-04 04:25:00,
2013-04-03 23:30:00,46.9,19.4,29.56,East,83,9.4,12.3,33,0.00,,---,0.00,VWS V14.00,2013-04-04 04:30:00,
2013-04-03 23:35:00,46.9,20.0,29.56,East,79,6.0,15.5,34,0.00,,---,0.00,VWS V14.00,2013-04-04 04:35:00,
2013-04-03 23:40:00,46.8,19.9,29.56,ENE,73,12.4,15.9,34,0.00,,---,0.00,VWS V14.00,2013-04-04 04:40:00,
2013-04-03 23:45:00,46.8,19.9,29.56,ENE,62,10.7,13.9,34,0.00,,---,0.00,VWS V14.00,2013-04-04 04:45:00,
2013-04-03 23:50:00,46.8,19.9,29.56,NE,55,9.4,12.3,34,0.00,,---,0.00,VWS V14.00,2013-04-04 04:50:00,
2013-04-03 23:55:00,46.8,19.9,29.56,East,79,4.7,6.6,34,0.00,,---,0.00,VWS V14.00,2013-04-04 04:55:00,